FW5107 Glendale CA current weather conditions

sailwx.info

Wind from 221 at 4 knots gusting 8

Air temperature 22.8° C
Dewpoint 21.2° C

Last reported at 2020-Aug-03 23:00 UTC.
Time now 2020-Aug-03 23:20 UTC

Location: N 45°49' W 061°19'.
View on Google Maps.

See reports from other nearby stations

  
Tides and Currents Weather Stations Pressure Air Temp Water Temp Dewpoint Dewpoint Depression Visibility Wind Speed Wind Dir Waves Ship Positions
date/time (UTC)wind fromknots sea level pressurealtimeterstation pressurevisibilityair tempwater tempwave heightnotes
2020-Aug-03 23:00 221 4 gusting 8 22.8
2020-Aug-03 22:55 207 3 gusting 9 22.8
2020-Aug-03 22:50 171 4 gusting 9 22.8
2020-Aug-03 22:45 194 4 gusting 9 22.8
2020-Aug-03 22:40 188 4 gusting 8 22.8
2020-Aug-03 22:30 182 3 gusting 6 22.8
2020-Aug-03 22:25 204 3 gusting 6 22.8
2020-Aug-03 22:20 182 2 gusting 9 22.8
2020-Aug-03 22:10 175 2 gusting 10 22.8
2020-Aug-03 22:05 200 5 gusting 10 22.8
2020-Aug-03 22:00 198 3 gusting 11 22.8
2020-Aug-03 21:55 192 6 gusting 11 22.8
2020-Aug-03 21:45 143 5 gusting 8 22.8
2020-Aug-03 21:40 216 4 gusting 8 22.8
2020-Aug-03 21:35 196 4 gusting 10 22.8
2020-Aug-03 21:30 211 3 gusting 11 22.8
2020-Aug-03 21:25 217 6 gusting 11 22.8
2020-Aug-03 21:20 231 3 gusting 12 22.8
2020-Aug-03 21:10 165 6 gusting 13 22.8
2020-Aug-03 21:05 213 8 gusting 13 22.8
2020-Aug-03 20:55 205 6 gusting 12 22.8
2020-Aug-03 20:50 199 3 gusting 13 22.8
2020-Aug-03 20:40 223 7 gusting 13 22.8
2020-Aug-03 20:35 203 9 gusting 14 22.8
2020-Aug-03 20:25 175 6 gusting 13 23.3
2020-Aug-03 20:20 185 6 gusting 13 23.3
2020-Aug-03 20:15 213 5 gusting 13 23.3
2020-Aug-03 20:10 181 6 gusting 15 23.3
2020-Aug-03 20:05 205 6 gusting 15 23.3
2020-Aug-03 19:56 183 6 gusting 15 23.3
2020-Aug-03 19:55 189 6 gusting 15 23.3
2020-Aug-03 19:46 178 6 gusting 18 23.3
2020-Aug-03 19:40 182 6 gusting 16 23.3
2020-Aug-03 19:36 194 8 gusting 14 23.3
2020-Aug-03 19:32 186 7 gusting 14 23.3
2020-Aug-03 19:26 202 7 gusting 14 23.3
2020-Aug-03 19:21 183 6 gusting 18 23.3
2020-Aug-03 19:17 207 8 gusting 17 23.9
2020-Aug-03 19:11 229 6 gusting 17 23.9
2020-Aug-03 19:05 214 6 gusting 16 24.4
2020-Aug-03 19:02 173 6 gusting 13 24.4
2020-Aug-03 18:55 197 6 gusting 17 24.4
2020-Aug-03 18:50 230 6 gusting 22 24.4
2020-Aug-03 18:46 198 9 gusting 22 24.4
2020-Aug-03 18:40 178 7 gusting 18 24.4
2020-Aug-03 18:36 234 11 gusting 18 25.0
2020-Aug-03 18:31 182 9 gusting 18 25.0
2020-Aug-03 18:25 180 8 gusting 13 25.0
2020-Aug-03 18:20 147 6 gusting 17 25.0
2020-Aug-03 18:17 170 7 gusting 17 25.0
2020-Aug-03 18:10 276 8 gusting 19 25.0
2020-Aug-03 18:05 189 8 gusting 15 25.6
2020-Aug-03 18:01 182 4 gusting 19 25.6
2020-Aug-03 17:55 167 8 gusting 19 25.6
2020-Aug-03 17:50 242 7 gusting 17 25.6
2020-Aug-03 17:47 202 9 gusting 16 26.1
2020-Aug-03 17:40 224 8 gusting 19 26.1
2020-Aug-03 17:35 190 7 gusting 19 25.6
2020-Aug-03 17:32 184 9 gusting 17 25.0
2020-Aug-03 17:20 193 6 gusting 16 25.6
2020-Aug-03 17:15 148 8 gusting 14 25.6
2020-Aug-03 17:10 219 6 gusting 15 25.6
2020-Aug-03 17:05 222 7 gusting 18 25.6
2020-Aug-03 17:00 225 9 gusting 18 25.6
2020-Aug-03 16:55 177 9 gusting 15 25.0
2020-Aug-03 16:50 164 6 gusting 14 25.0
2020-Aug-03 16:46 190 6 gusting 14 25.0
2020-Aug-03 16:40 174 6 gusting 14 25.0
2020-Aug-03 16:35 209 6 gusting 11 25.6
2020-Aug-03 16:31 180 6 gusting 12 25.6
2020-Aug-03 16:25 209 4 gusting 10 25.0
2020-Aug-03 16:20 207 4 gusting 9 25.0
2020-Aug-03 16:16 200 6 gusting 15 24.4
2020-Aug-03 16:10 218 8 gusting 15 24.4
2020-Aug-03 16:05 223 5 gusting 12 24.4
2020-Aug-03 16:00 151 6 gusting 18 25.0
2020-Aug-03 15:55 212 6 gusting 18 25.0
2020-Aug-03 15:50 191 7 gusting 13 25.6
2020-Aug-03 15:46 202 7 gusting 16 25.0
2020-Aug-03 15:40 209 8 gusting 16 25.6
2020-Aug-03 15:35 192 9 gusting 18 25.6
2020-Aug-03 15:30 195 8 gusting 18 26.1
2020-Aug-03 15:25 220 8 gusting 18 26.1
2020-Aug-03 15:20 252 5 gusting 15 26.1
2020-Aug-03 15:15 170 7 gusting 19 26.1
2020-Aug-03 15:10 168 11 gusting 19 26.1
2020-Aug-03 15:05 201 6 gusting 16 26.1
2020-Aug-03 15:00 188 9 gusting 14 26.1
2020-Aug-03 14:55 152 6 gusting 12 26.1
2020-Aug-03 14:50 246 6 gusting 12 25.6
2020-Aug-03 14:45 168 6 gusting 11 25.6
2020-Aug-03 14:40 177 6 gusting 13 25.6
2020-Aug-03 14:35 139 8 gusting 14 25.6
2020-Aug-03 14:30 215 8 gusting 13 25.6
2020-Aug-03 14:25 214 7 gusting 13 25.6
2020-Aug-03 14:20 219 8 gusting 15 25.6
2020-Aug-03 14:15 227 6 gusting 13 25.6
2020-Aug-03 14:10 190 7 gusting 13 25.0
2020-Aug-03 14:05 192 6 gusting 13 25.0
2020-Aug-03 14:01 216 6 gusting 14 25.0
2020-Aug-03 13:55 247 9 gusting 14 24.4
2020-Aug-03 13:50 173 6 gusting 14 24.4
2020-Aug-03 13:45 199 7 gusting 14 24.4
2020-Aug-03 13:40 213 7 gusting 13 24.4
2020-Aug-03 13:35 228 6 gusting 17 24.4
2020-Aug-03 13:25 197 6 gusting 13 24.4
2020-Aug-03 13:20 207 6 gusting 11 24.4
2020-Aug-03 13:15 232 4 gusting 12 24.4
2020-Aug-03 13:10 219 6 gusting 15 24.4
2020-Aug-03 13:05 211 7 gusting 13 24.4
2020-Aug-03 13:00 199 5 gusting 9 23.9
2020-Aug-03 12:55 180 4 gusting 13 23.9
2020-Aug-03 12:50 213 8 gusting 13 23.9
2020-Aug-03 12:41 163 3 gusting 8 23.9
2020-Aug-03 12:36 236 3 gusting 10 23.3
2020-Aug-03 12:31 194 6 gusting 10 23.3
2020-Aug-03 12:26 216 3 gusting 8 23.3
2020-Aug-03 12:25 206 4 gusting 8 22.8
2020-Aug-03 12:17 198 2 gusting 5 22.2
2020-Aug-03 12:10 194 1 gusting 4 22.2
2020-Aug-03 12:05 168 1 gusting 4 21.7
2020-Aug-03 12:01 235 0 gusting 1 21.1
2020-Aug-03 11:55 236 21.1
2020-Aug-03 11:50 242 1 gusting 3 20.6
2020-Aug-03 11:46 221 0 gusting 5 20.0
2020-Aug-03 11:40 222 2 gusting 5 20.0
2020-Aug-03 11:35 213 2 gusting 4 19.4
2020-Aug-03 11:31 215 1 gusting 3 18.9
2020-Aug-03 11:25 235 1 gusting 3 18.9
2020-Aug-03 11:20 248 2 gusting 3 18.3
2020-Aug-03 11:16 285 18.3
2020-Aug-03 11:10 296 0 gusting 2 17.8
2020-Aug-03 11:05 296 0 gusting 2 17.8
2020-Aug-03 11:00 296 17.2
2020-Aug-03 10:55 296 17.2
2020-Aug-03 10:50 296 16.7
2020-Aug-03 10:46 296 16.1
2020-Aug-03 10:40 296 16.1
2020-Aug-03 10:35 296 15.6
2020-Aug-03 10:31 296 15.0
2020-Aug-03 10:25 296 15.0
2020-Aug-03 10:20 296 14.4
2020-Aug-03 10:15 296 13.9
2020-Aug-03 10:10 296 13.9
2020-Aug-03 10:05 296 13.3
2020-Aug-03 10:00 296 12.8
2020-Aug-03 09:55 296 12.8
2020-Aug-03 09:50 296 12.8
2020-Aug-03 09:40 296 12.2
2020-Aug-03 09:35 296 12.2
2020-Aug-03 09:25 296 12.2
2020-Aug-03 09:20 296 12.2
2020-Aug-03 09:10 296 12.2
2020-Aug-03 09:05 296 12.2
2020-Aug-03 08:55 296 12.2
2020-Aug-03 08:50 296 12.2
2020-Aug-03 08:40 296 12.2
2020-Aug-03 08:35 296 12.2
2020-Aug-03 08:25 296 12.2
2020-Aug-03 08:20 296 12.2
2020-Aug-03 08:15 296 12.8
2020-Aug-03 08:10 296 12.8
2020-Aug-03 08:05 296 12.8
2020-Aug-03 08:00 296 12.8
2020-Aug-03 07:55 296 12.8
2020-Aug-03 07:50 296 12.8
2020-Aug-03 07:45 296 12.8
2020-Aug-03 07:40 296 12.8
2020-Aug-03 07:35 296 12.8
2020-Aug-03 07:25 296 12.8
2020-Aug-03 07:20 296 12.8
2020-Aug-03 07:15 296 12.8
2020-Aug-03 07:10 296 0 gusting 1 12.8
2020-Aug-03 07:05 296 12.8
2020-Aug-03 07:00 296 13.3
2020-Aug-03 06:55 296 13.3
2020-Aug-03 06:50 296 12.8
2020-Aug-03 06:45 296 1 gusting 4 13.3
2020-Aug-03 06:36 044 13.3
2020-Aug-03 06:32 044 13.3
2020-Aug-03 06:26 044 13.3
2020-Aug-03 06:20 044 0 gusting 1 13.3
2020-Aug-03 06:17 044 13.3
2020-Aug-03 06:11 044 13.3
2020-Aug-03 06:06 044 0 gusting 1 13.3
2020-Aug-03 05:56 044 13.3
2020-Aug-03 05:51 044 0 gusting 2 13.3
2020-Aug-03 05:46 044 13.9
2020-Aug-03 05:40 044 0 gusting 2 13.9
2020-Aug-03 05:36 044 0 gusting 1 13.9
2020-Aug-03 05:32 044 13.9
2020-Aug-03 05:26 044 0 gusting 2 13.9
2020-Aug-03 05:21 044 13.9
2020-Aug-03 05:16 044 13.9
2020-Aug-03 05:10 044 1 gusting 3 13.9
2020-Aug-03 05:05 040 0 gusting 2 13.9
2020-Aug-03 05:01 040 0 gusting 2 13.9
2020-Aug-03 04:55 040 0 gusting 2 13.9
2020-Aug-03 04:50 040 0 gusting 2 13.9
2020-Aug-03 04:46 040 13.9
2020-Aug-03 04:40 040 13.9
2020-Aug-03 04:35 040 13.9
2020-Aug-03 04:32 040 13.9
2020-Aug-03 04:26 040 0 gusting 2 14.4
2020-Aug-03 04:20 040 14.4
2020-Aug-03 04:16 040 14.4
2020-Aug-03 04:11 040 0 gusting 3 14.4
2020-Aug-03 04:05 040 2 gusting 3 14.4
2020-Aug-03 04:01 052 0 gusting 1 14.4
2020-Aug-03 03:55 052 14.4
2020-Aug-03 03:50 052 14.4
2020-Aug-03 03:40 034 14.4
2020-Aug-03 03:36 057 14.4
2020-Aug-03 03:32 057 1 gusting 3 15.0
2020-Aug-03 03:25 057 0 gusting 3 15.0
2020-Aug-03 03:20 053 1 gusting 3 15.0
2020-Aug-03 03:16 059 1 gusting 3 15.0
2020-Aug-03 03:10 049 0 gusting 2 15.0
2020-Aug-03 03:06 049 0 gusting 2 15.0
2020-Aug-03 03:00 049 15.0
2020-Aug-03 02:55 049 15.6
2020-Aug-03 02:50 047 15.6
2020-Aug-03 02:46 047 15.6
2020-Aug-03 02:40 047 15.6
2020-Aug-03 02:35 047 15.6
2020-Aug-03 02:32 047 15.6
2020-Aug-03 02:25 047 0 gusting 2 16.1
2020-Aug-03 02:15 047 1 gusting 2 16.1
2020-Aug-03 02:10 047 16.1
2020-Aug-03 02:05 046 1 gusting 3 16.1
2020-Aug-03 02:01 360 0 gusting 2 16.1
2020-Aug-03 01:55 360 16.7
2020-Aug-03 01:50 346 0 gusting 2 16.7
2020-Aug-03 01:46 005 0 gusting 3 16.7
2020-Aug-03 01:40 305 0 gusting 3 16.7
2020-Aug-03 01:35 347 1 gusting 3 16.7
2020-Aug-03 01:31 036 0 gusting 2 17.2
2020-Aug-03 01:25 036 17.2
2020-Aug-03 01:20 036 17.2
2020-Aug-03 01:16 036 0 gusting 1 17.2
2020-Aug-03 01:10 036 17.8
2020-Aug-03 01:05 036 17.8
2020-Aug-03 01:00 036 17.8
2020-Aug-03 00:55 036 0 gusting 2 17.8
2020-Aug-03 00:50 036 0 gusting 1 18.3
2020-Aug-03 00:46 036 18.3
2020-Aug-03 00:40 036 18.3
2020-Aug-03 00:35 040 18.9
2020-Aug-03 00:30 045 1 gusting 2 18.9
2020-Aug-03 00:25 045 19.4
2020-Aug-03 00:20 045 0 gusting 3 19.4
2020-Aug-03 00:16 045 19.4
2020-Aug-03 00:10 036 1 gusting 3 20.0
2020-Aug-03 00:05 044 1 gusting 4 20.6
2020-Aug-03 00:00 040 0 gusting 4 20.6
2020-Aug-02 23:55 342 0 gusting 2 21.1
2020-Aug-02 23:50 342 21.7
2020-Aug-02 23:46 342 1 gusting 2 22.2
2020-Aug-02 23:40 329 22.8
2020-Aug-02 23:35 329 23.3
2020-Aug-02 23:31 329 23.3
2020-Aug-02 23:25 329 0 gusting 1 23.9
2020-Aug-02 23:20 329 24.4
2020-Aug-02 23:15 329 24.4
2020-Aug-02 23:10 329 0 gusting 1 25.0
2020-Aug-02 23:05 329 0 gusting 2 25.0
2020-Aug-02 23:01 325 0 gusting 2 25.6
2020-Aug-02 22:55 276 0 gusting 1 26.1
2020-Aug-02 22:50 276 26.7
2020-Aug-02 22:46 276 0 gusting 1 26.7
2020-Aug-02 22:40 276 0 gusting 1 27.2
2020-Aug-02 22:35 276 27.8
2020-Aug-02 22:30 276 27.8
2020-Aug-02 22:25 276 0 gusting 1 27.8
2020-Aug-02 22:20 276 0 gusting 1 27.8
2020-Aug-02 22:15 276 27.8
2020-Aug-02 22:10 276 1 gusting 3 27.8
2020-Aug-02 22:05 277 1 gusting 3 27.8
2020-Aug-02 22:01 277 1 gusting 5 27.8
2020-Aug-02 21:55 261 2 gusting 5 27.8
2020-Aug-02 21:50 283 1 gusting 3 27.8
2020-Aug-02 21:46 273 1 gusting 4 27.8
2020-Aug-02 21:40 270 1 gusting 4 27.8
2020-Aug-02 21:35 288 1 gusting 6 27.8
2020-Aug-02 21:25 288 3 gusting 6 27.8
2020-Aug-02 21:20 316 2 gusting 6 27.8
2020-Aug-02 21:15 236 2 gusting 6 28.3
2020-Aug-02 21:10 236 1 gusting 6 28.3
2020-Aug-02 21:05 256 1 gusting 8 28.3
2020-Aug-02 20:55 293 3 gusting 7 28.3
2020-Aug-02 20:50 274 2 gusting 7 28.3
2020-Aug-02 20:45 286 2 gusting 9 28.3
2020-Aug-02 20:40 279 6 gusting 9 28.3
2020-Aug-02 20:35 282 6 gusting 9 28.3
2020-Aug-02 20:25 260 6 gusting 10 28.3
2020-Aug-02 20:20 315 2 gusting 9 28.3
2020-Aug-02 20:15 291 2 gusting 9 28.3
2020-Aug-02 20:10 259 6 gusting 9 28.3
2020-Aug-02 20:05 246 2 gusting 9 28.3
2020-Aug-02 19:56 308 5 gusting 9 28.3
2020-Aug-02 19:51 238 4 gusting 9 28.3
2020-Aug-02 19:46 265 6 gusting 9 27.8
2020-Aug-02 19:41 258 5 gusting 10 27.8
2020-Aug-02 19:36 259 5 gusting 10 28.3
2020-Aug-02 19:32 274 3 gusting 8 28.3
2020-Aug-02 19:25 309 4 gusting 12 27.8
2020-Aug-02 19:20 221 6 gusting 12 27.8
2020-Aug-02 19:16 264 5 gusting 9 28.3
2020-Aug-02 19:10 248 5 gusting 9 27.8
2020-Aug-02 19:06 236 3 gusting 10 27.8
2020-Aug-02 19:01 248 5 gusting 10 27.8
2020-Aug-02 18:55 304 5 gusting 11 27.8
2020-Aug-02 18:50 298 5 gusting 11 27.8
2020-Aug-02 18:47 232 6 gusting 10 27.8
2020-Aug-02 18:40 298 3 gusting 10 27.8
2020-Aug-02 18:35 296 7 gusting 10 27.8
2020-Aug-02 18:31 277 4 gusting 8 27.8
2020-Aug-02 18:25 269 5 gusting 9 27.8
2020-Aug-02 18:20 271 6 gusting 9 27.8
2020-Aug-02 18:16 257 6 gusting 9 27.2
2020-Aug-02 18:11 284 4 gusting 11 27.2
2020-Aug-02 18:05 260 5 gusting 11 27.8
2020-Aug-02 18:01 296 4 gusting 11 27.2
2020-Aug-02 17:55 260 6 gusting 12 27.2
2020-Aug-02 17:50 249 6 gusting 12 27.2
2020-Aug-02 17:45 295 4 gusting 11 27.2
2020-Aug-02 17:40 270 6 gusting 11 27.2
2020-Aug-02 17:36 299 6 gusting 11 27.2
2020-Aug-02 17:31 234 4 gusting 10 27.2
2020-Aug-02 17:25 267 5 gusting 11 27.2
2020-Aug-02 17:20 282 4 gusting 12 27.2
2020-Aug-02 17:16 294 6 gusting 11 26.7
2020-Aug-02 17:10 276 5 gusting 12 26.7
2020-Aug-02 17:05 274 7 gusting 12 26.7
2020-Aug-02 17:01 295 6 gusting 11 26.7
2020-Aug-02 16:56 242 3 gusting 10 27.2
2020-Aug-02 16:50 236 4 gusting 12 27.2
2020-Aug-02 16:46 247 6 gusting 11 26.7
2020-Aug-02 16:40 286 6 gusting 10 27.2
2020-Aug-02 16:35 274 5 gusting 10 27.2
2020-Aug-02 16:31 268 6 gusting 9 26.7
2020-Aug-02 16:25 285 6 gusting 9 26.7
2020-Aug-02 16:20 250 5 gusting 12 26.7
2020-Aug-02 16:15 252 6 gusting 12 26.7
2020-Aug-02 16:10 340 4 gusting 9 26.7
2020-Aug-02 16:05 297 4 gusting 10 26.7
2020-Aug-02 16:00 315 3 gusting 10 26.7
2020-Aug-02 15:50 301 4 gusting 12 26.1
2020-Aug-02 15:45 258 5 gusting 12 26.1
2020-Aug-02 15:40 271 7 gusting 11 26.1
2020-Aug-02 15:35 298 6 gusting 11 26.1
2020-Aug-02 15:30 299 6 gusting 11 26.1
2020-Aug-02 15:25 251 5 gusting 10 26.1
2020-Aug-02 15:20 296 6 gusting 9 26.1
2020-Aug-02 15:15 278 2 gusting 9 26.1
2020-Aug-02 15:10 300 2 gusting 9 26.1
2020-Aug-02 15:00 270 4 gusting 7 25.6
2020-Aug-02 14:55 005 2 gusting 7 25.6
2020-Aug-02 14:45 284 4 gusting 8 25.0
2020-Aug-02 14:40 278 4 gusting 8 25.6
2020-Aug-02 14:35 325 2 gusting 8 25.0
2020-Aug-02 14:25 277 3 gusting 10 25.0
2020-Aug-02 14:20 275 6 gusting 10 24.4
2020-Aug-02 14:15 339 6 gusting 10 24.4
2020-Aug-02 14:10 305 3 gusting 9 24.4
2020-Aug-02 13:56 322 2 gusting 9 24.4
2020-Aug-02 13:50 005 4 gusting 8 23.9
2020-Aug-02 13:46 288 3 gusting 8 23.9
2020-Aug-02 13:40 254 2 gusting 9 23.9
2020-Aug-02 13:31 320 2 gusting 7 23.3
2020-Aug-02 13:25 300 5 gusting 7 23.3
2020-Aug-02 13:20 278 4 gusting 7 22.8
2020-Aug-02 13:16 302 2 gusting 9 22.8
2020-Aug-02 13:10 292 3 gusting 8 22.8
2020-Aug-02 13:05 269 3 gusting 7 22.8
2020-Aug-02 13:01 274 4 gusting 9 22.8
2020-Aug-02 12:55 294 6 gusting 9 22.8
2020-Aug-02 12:50 271 3 gusting 8 22.8
2020-Aug-02 12:46 242 2 gusting 9 22.8
2020-Aug-02 12:40 290 5 gusting 9 22.8
2020-Aug-02 12:35 355 4 gusting 8 22.2
2020-Aug-02 12:31 284 4 gusting 8 22.2
2020-Aug-02 12:21 311 4 gusting 9 22.2
2020-Aug-02 12:16 034 4 gusting 7 22.2
2020-Aug-02 12:10 303 2 gusting 7 22.2
2020-Aug-02 12:05 016 2 gusting 6 21.7
2020-Aug-02 12:00 327 1 gusting 6 21.7
2020-Aug-02 11:55 286 2 gusting 7 21.7
2020-Aug-02 11:50 304 3 gusting 8 21.1
2020-Aug-02 11:46 355 4 gusting 7 21.1
2020-Aug-02 11:40 321 3 gusting 7 21.1
2020-Aug-02 11:35 329 1 gusting 4 20.6
2020-Aug-02 11:30 028 20.0
2020-Aug-02 11:25 172 0 gusting 2 20.0
2020-Aug-02 11:20 167 2 gusting 4 19.4
2020-Aug-02 11:15 167 1 gusting 4 18.9
2020-Aug-02 11:10 168 0 gusting 2 18.9
2020-Aug-02 11:05 168 18.3
2020-Aug-02 11:00 168 17.8
2020-Aug-02 10:55 163 0 gusting 5 17.8
2020-Aug-02 10:50 148 1 gusting 4 17.8
2020-Aug-02 10:45 109 1 gusting 2 17.2
2020-Aug-02 10:40 108 0 gusting 2 17.2
2020-Aug-02 10:35 108 0 gusting 5 16.7
2020-Aug-02 10:30 122 1 gusting 5 16.7
2020-Aug-02 10:25 103 1 gusting 5 16.1
2020-Aug-02 10:20 124 0 gusting 2 16.1
2020-Aug-02 10:15 138 0 gusting 2 15.6
2020-Aug-02 10:10 137 0 gusting 2 15.6
2020-Aug-02 10:05 137 15.6
2020-Aug-02 10:00 137 0 gusting 4 15.0
2020-Aug-02 09:55 140 1 gusting 4 15.0
2020-Aug-02 09:50 110 1 gusting 3 15.0
2020-Aug-02 09:45 107 0 gusting 2 15.0
2020-Aug-02 09:40 107 15.0
2020-Aug-02 09:35 107 0 gusting 2 15.0
2020-Aug-02 09:30 107 0 gusting 2 14.4
2020-Aug-02 09:25 107 14.4
2020-Aug-02 09:20 107 14.4
2020-Aug-02 09:15 107 14.4
2020-Aug-02 09:06 107 0 gusting 2 14.4
2020-Aug-02 09:01 107 0 gusting 2 14.4
2020-Aug-02 08:55 106 14.4
2020-Aug-02 08:50 106 0 gusting 2 14.4
2020-Aug-02 08:46 106 0 gusting 2 14.4
2020-Aug-02 08:41 148 0 gusting 2 14.4
2020-Aug-02 08:35 148 14.4
2020-Aug-02 08:31 148 0 gusting 2 14.4
2020-Aug-02 08:26 149 0 gusting 3 14.4
2020-Aug-02 08:20 135 1 gusting 3 15.0
2020-Aug-02 08:17 096 15.0
2020-Aug-02 08:10 096 15.0
2020-Aug-02 08:06 096 15.0
2020-Aug-02 08:01 096 15.6
2020-Aug-02 07:56 096 1 gusting 2 15.6
2020-Aug-02 07:50 036 15.6
2020-Aug-02 07:46 035 0 gusting 5 15.6
2020-Aug-02 07:40 050 2 gusting 5 15.6
2020-Aug-02 07:35 095 0 gusting 3 16.1
2020-Aug-02 07:31 115 2 gusting 3 16.1
2020-Aug-02 07:25 125 1 gusting 4 16.1
2020-Aug-02 07:21 135 0 gusting 4 16.1
2020-Aug-02 07:16 125 1 gusting 3 16.7
2020-Aug-02 07:10 131 1 gusting 2 16.7
2020-Aug-02 07:05 148 1 gusting 3 16.7
2020-Aug-02 07:01 076 16.7
2020-Aug-02 06:55 076 1 gusting 3 16.7
2020-Aug-02 06:50 159 0 gusting 4 16.7
2020-Aug-02 06:46 159 0 gusting 5 16.7
2020-Aug-02 06:40 155 1 gusting 6 16.7
2020-Aug-02 06:35 153 3 gusting 6 16.7
2020-Aug-02 06:31 155 1 gusting 4 16.7
2020-Aug-02 06:25 176 0 gusting 4 16.7
2020-Aug-02 06:20 284 2 gusting 4 16.7
2020-Aug-02 06:16 296 1 gusting 4 16.7
2020-Aug-02 06:10 331 0 gusting 3 16.7
2020-Aug-02 06:05 073 0 gusting 2 16.7
2020-Aug-02 06:00 196 0 gusting 2 17.2
2020-Aug-02 05:55 196 0 gusting 2 17.2
2020-Aug-02 05:50 196 17.2
2020-Aug-02 05:46 202 1 gusting 3 17.2
2020-Aug-02 05:40 105 17.2
2020-Aug-02 05:35 105 0 gusting 3 17.2
2020-Aug-02 05:31 105 0 gusting 4 17.2
2020-Aug-02 05:25 141 0 gusting 6 17.2
2020-Aug-02 05:20 110 2 gusting 6 17.2
2020-Aug-02 05:16 188 1 gusting 3 17.2
2020-Aug-02 05:10 173 1 gusting 4 17.2
2020-Aug-02 05:05 348 0 gusting 3 17.2
2020-Aug-02 05:01 348 0 gusting 3 17.2
2020-Aug-02 04:55 052 1 gusting 3 17.2
2020-Aug-02 04:50 068 0 gusting 3 17.2
2020-Aug-02 04:45 343 0 gusting 6 17.2
2020-Aug-02 04:40 314 17.2
2020-Aug-02 04:35 284 1 gusting 5 17.2
2020-Aug-02 04:30 280 2 gusting 5 17.2
2020-Aug-02 04:25 257 2 gusting 5 17.2
2020-Aug-02 04:20 316 0 gusting 2 17.2
2020-Aug-02 04:16 335 17.2
2020-Aug-02 04:11 329 17.2
2020-Aug-02 04:05 336 17.2
2020-Aug-02 04:01 254 17.2
2020-Aug-02 03:56 254 0 gusting 2 17.2
2020-Aug-02 03:50 331 0 gusting 2 17.2
2020-Aug-02 03:45 155 0 gusting 2 17.2
2020-Aug-02 03:40 103 17.2
2020-Aug-02 03:35 103 17.2
2020-Aug-02 03:30 103 17.2
2020-Aug-02 03:25 103 0 gusting 4 17.2
2020-Aug-02 03:20 346 17.2
2020-Aug-02 03:15 012 17.2
2020-Aug-02 03:10 037 2 gusting 3 17.2
2020-Aug-02 03:05 005 17.2
2020-Aug-02 03:00 005 1 gusting 3 17.2
2020-Aug-02 02:55 292 0 gusting 6 17.2
2020-Aug-02 02:50 360 3 gusting 6 17.2
2020-Aug-02 02:45 011 1 gusting 6 17.2
2020-Aug-02 02:40 343 0 gusting 3 17.2
2020-Aug-02 02:35 315 0 gusting 3 17.2
2020-Aug-02 02:25 355 3 gusting 8 17.2
2020-Aug-02 02:20 360 2 gusting 8 17.2
2020-Aug-02 02:15 333 3 gusting 8 17.2
2020-Aug-02 02:10 325 4 gusting 8 17.2
2020-Aug-02 02:05 301 4 gusting 8 17.2
2020-Aug-02 01:55 331 3 gusting 8 16.7
2020-Aug-02 01:50 306 3 gusting 9 17.2
2020-Aug-02 01:40 304 2 gusting 8 17.2
2020-Aug-02 01:35 325 2 gusting 8 17.2
2020-Aug-02 01:25 343 1 gusting 6 17.2
2020-Aug-02 01:10 292 3 gusting 8 17.2
2020-Aug-02 01:05 314 2 gusting 7 17.2
2020-Aug-02 01:00 348 3 gusting 7 17.2
2020-Aug-02 00:55 342 1 gusting 7 17.2
2020-Aug-02 00:50 343 3 gusting 7 17.2
2020-Aug-02 00:40 325 2 gusting 8 17.2
2020-Aug-02 00:35 329 4 gusting 11 17.2
2020-Aug-02 00:30 319 4 gusting 11 17.8
2020-Aug-02 00:25 337 6 gusting 10 17.8
2020-Aug-02 00:20 355 2 gusting 7 17.8
2020-Aug-02 00:10 355 6 gusting 9 17.8
2020-Aug-02 00:05 347 2 gusting 6 17.8
2020-Aug-02 00:00 321 2 gusting 8 17.8
2020-Aug-01 23:55 346 3 gusting 8 17.8
2020-Aug-01 23:50 355 1 gusting 8 17.8
2020-Aug-01 23:40 300 3 gusting 7 17.8
2020-Aug-01 23:35 294 3 gusting 8 17.8
2020-Aug-01 23:20 346 3 gusting 8 18.3
2020-Aug-01 23:15 329 1 gusting 7 18.3
2020-Aug-01 23:10 331 3 gusting 7 18.3